DL7MAP-13 Weather Reports


Display with metric or nautical units.
time (UTC)temp
F
wind
direction
speed
MPH
gust
MPH
rain 1hr
in
rain 24hr
in
rain mn
in
humidity
%
barometer
mb
20260831092224 66 0.0 0.0 0.00 0.00 0.00 85 1006.5
20260831090724 63 0.0 0.0 0.00 0.00 0.00 88 1007.1
20260831085224 62 0.0 0.0 0.00 0.00 0.00 88 1006.4
20260831083724 61 0.0 0.0 0.00 0.00 0.00 88 1007.0
20260831082224 61 0.0 0.0 0.00 0.00 0.00 87 1007.0
20260831080724 61 0.0 0.0 0.00 0.00 0.00 86 1006.8
20260831075224 61 0.0 0.0 0.00 0.00 0.00 85 1007.0
20260831073724 61 0.0 0.0 0.00 0.00 0.00 84 1006.6
20260831072224 62 0.0 0.0 0.00 0.00 0.00 82 1006.8
20260831070724 63 0.0 0.0 0.00 0.00 0.00 80 1005.1
20260831065224 63 0.0 0.0 0.00 0.00 0.00 80 1005.5
20260831063724 63 0.0 0.0 0.00 0.00 0.00 81 1005.8
20260831062224 62 0.0 0.0 0.00 0.00 0.00 83 1006.0
20260831060724 61 0.0 0.0 0.00 0.00 0.00 84 1006.0
20260831055224 61 0.0 0.0 0.00 0.00 0.00 85 1006.1
20260831053724 61 0.0 0.0 0.00 0.00 0.00 85 1006.1
20260831052224 60 0.0 0.0 0.00 0.00 0.00 85 1006.2
20260831050724 60 0.0 0.0 0.00 0.00 0.00 85 1005.8
20260831045224 59 0.0 0.0 0.00 0.00 0.00 85 1006.6
20260831043724 59 0.0 0.0 0.00 0.00 0.00 86 1006.5
20260831042224 59 0.0 0.0 0.00 0.00 0.00 85 1005.8
20260831040724 60 0.0 0.0 0.00 0.00 0.00 85 1006.3
20260831035224 59 0.0 0.0 0.00 0.00 0.00 84 1006.3
20260831033724 58 0.0 0.0 0.00 0.00 0.00 86 1006.9
20260831032224 58 0.0 0.0 0.00 0.00 0.00 85 1006.8
20260831030724 59 0.0 0.0 0.00 0.00 0.00 84 1006.7
20260831025224 59 0.0 0.0 0.00 0.00 0.00 84 1006.4
20260831023724 60 0.0 0.0 0.00 0.00 0.00 82 1006.9
20260831022224 61 0.0 0.0 0.00 0.00 0.00 81 1006.8
20260831020724 60 0.0 0.0 0.00 0.00 0.00 82 1006.6
20260831015224 61 0.0 0.0 0.00 0.00 0.00 81 1007.1
20260831013724 61 0.0 0.0 0.00 0.00 0.00 80 1006.8
20260831012224 62 0.0 0.0 0.00 0.00 0.00 80 1006.9
20260831010724 62 0.0 0.0 0.00 0.00 0.00 80 1007.1
20260831005224 61 0.0 0.0 0.00 0.00 0.00 82 1007.3
20260831003724 62 0.0 0.0 0.00 0.00 0.00 80 1007.5
20260831002224 62 0.0 0.0 0.00 0.00 0.00 80 1007.6
20260831000724 62 0.0 0.0 0.00 0.00 0.00 79 1007.6
20260830235224 63 0.0 0.0 0.00 0.00 0.00 78 1007.5
20260830233724 64 0.0 0.0 0.00 0.00 0.00 76 1007.4
20260830232224 65 0.0 0.0 0.00 0.00 0.00 73 1007.5
20260830230724 65 0.0 0.0 0.00 0.00 0.00 74 1007.4
20260830225224 65 0.0 0.0 0.00 0.00 0.00 73 1007.6
20260830223724 66 0.0 0.0 0.00 0.00 0.00 72 1007.3
20260830222224 65 0.0 0.0 0.00 0.00 0.00 73 1007.4
20260830220724 66 0.0 0.0 0.00 0.00 0.00 73 1007.6
20260830215224 66 0.0 0.0 0.00 0.00 0.00 74 1007.6
20260830213724 66 0.0 0.0 0.00 0.00 0.00 74 1007.1
20260830212224 66 0.0 0.0 0.00 0.00 0.00 73 1007.4
20260830210724 66 0.0 0.0 0.00 0.00 0.00 72 1007.2
20260830205224 66 0.0 0.0 0.00 0.00 0.00 71 1007.6
20260830203724 68 0.0 0.0 0.00 0.00 0.00 69 1007.6
20260830202224 69 0.0 0.0 0.00 0.00 0.00 65 1007.5
20260830200724 70 0.0 0.0 0.00 0.00 0.00 64 1007.7
20260830195224 70 0.0 0.0 0.00 0.00 0.00 62 1007.5
20260830193724 71 0.0 0.0 0.00 0.00 0.00 61 1007.5
20260830192224 71 0.0 0.0 0.00 0.00 0.00 60 1007.5
20260830190724 72 0.0 0.0 0.00 0.00 0.00 59 1007.3
20260830185224 72 0.0 0.0 0.00 0.00 0.00 58 1007.1
20260830183724 73 0.0 0.0 0.00 0.00 0.00 57 1007.2
20260830182225 73 0.0 0.0 0.00 0.00 0.00 56 1006.8
20260830180724 73 0.0 0.0 0.00 0.00 0.00 55 1007.2
20260830175224 74 0.0 0.0 0.00 0.00 0.00 54 1006.2
20260830173724 75 0.0 0.0 0.00 0.00 0.00 53 1006.3
20260830172224 75 0.0 0.0 0.00 0.00 0.00 52 1005.9
20260830170724 76 0.0 0.0 0.00 0.00 0.00 50 1005.9
20260830165224 76 0.0 0.0 0.00 0.00 0.00 48 1005.6
20260830163724 77 0.0 0.0 0.00 0.00 0.00 48 1005.6
20260830162224 78 0.0 0.0 0.00 0.00 0.00 48 1007.0
20260830160724 78 0.0 0.0 0.00 0.00 0.00 47 1005.4
20260830155224 79 0.0 0.0 0.00 0.00 0.00 47 1005.3
20260830153724 79 0.0 0.0 0.00 0.00 0.00 46 1004.3
20260830152224 79 0.0 0.0 0.00 0.00 0.00 45 1005.2
20260830150724 79 0.0 0.0 0.00 0.00 0.00 45 1007.0
20260830145224 80 0.0 0.0 0.00 0.00 0.00 44 1004.6
20260830143724 80 0.0 0.0 0.00 0.00 0.00 45 1003.9
20260830142224 80 0.0 0.0 0.00 0.00 0.00 47 1006.4
20260830140724 79 0.0 0.0 0.00 0.00 0.00 50 1004.7
20260830135224 79 0.0 0.0 0.00 0.00 0.00 49 1004.6
20260830133725 80 0.0 0.0 0.00 0.00 0.00 49 1003.7
20260830132224 79 0.0 0.0 0.00 0.00 0.00 50 1005.9
20260830130724 79 0.0 0.0 0.00 0.00 0.00 51 1005.6
20260830125224 79 0.0 0.0 0.00 0.00 0.00 51 1004.3
20260830123724 79 0.0 0.0 0.00 0.00 0.00 53 1004.7
20260830122224 78 0.0 0.0 0.00 0.00 0.00 54 1004.4
20260830120724 77 0.0 0.0 0.00 0.00 0.00 55 1005.8
20260830115224 77 0.0 0.0 0.00 0.00 0.00 54 1005.7
20260830113724 78 0.0 0.0 0.00 0.00 0.00 55 1005.4
20260830112224 78 0.0 0.0 0.00 0.00 0.00 54 1005.2
20260830110724 78 0.0 0.0 0.00 0.00 0.00 54 1005.2
20260830105224 78 0.0 0.0 0.00 0.00 0.00 54 1004.1
20260830103724 79 0.0 0.0 0.00 0.00 0.00 52 1004.6
20260830102224 78 0.0 0.0 0.00 0.00 0.00 54 1005.9
20260830100724 78 0.0 0.0 0.00 0.00 0.00 53 1004.6
20260830095224 77 0.0 0.0 0.00 0.00 0.00 55 1005.3
20260830093724 77 0.0 0.0 0.00 0.00 0.00 56 1004.6